This demonstration page uses our WeatherBlox Daily Observations layout. Learn more.

Left ArrowRight Arrow

32.84923, -109.75925

Hourly Observations for June 9, 2023

Temp ( °F °C ) Dew Point ( °F °C ) Humidity (%) Winds ( mph kmh ) Pressure ( in mb ) Visibility ( mi km ) Precip ( " mm )
12:51 am 00:51 Clear 73 22.8 27 -2.8 18 18 WNW 8 13 29.81 1010 10 16 0.00 0.00
1:51 am 01:51 Clear 73 22.8 24 -4.4 16 16 NW 12 19 29.80 1009 10 16 0.00 0.00
2:51 am 02:51 Clear 72 22.2 22 -5.6 15 15 NNW 12 19 29.81 1010 10 16 0.00 0.00
3:51 am 03:51 Clear 66 18.9 21 -6.1 18 18 NW 9 15 29.83 1010 10 16 0.00 0.00
4:51 am 04:51 Clear 65 18.3 21 -6.1 18 18 NW 7 11 29.84 1011 10 16 0.00 0.00
5:51 am 05:51 Sunny 64 17.8 21 -6.1 19 19 VRB 3 6 29.86 1011 10 16 0.00 0.00
6:51 am 06:51 Sunny 64 17.8 26 -3.3 23 23 Calm 29.88 1012 10 16 0.00 0.00
7:51 am 07:51 Sunny 69 20.6 25 -3.9 19 19 SE 5 7 29.89 1012 10 16 0.00 0.00
8:51 am 08:51 Sunny 76 24.4 26 -3.3 16 16 VRB 5 7 29.88 1012 10 16 0.00 0.00
9:51 am 09:51 Sunny 79 26.1 26 -3.3 14 14 W 5 7 29.86 1011 10 16 0.00 0.00
10:51 am 10:51 Sunny 81 27.2 26 -3.3 13 13 Calm 29.87 1012 10 16 0.00 0.00
11:51 am 11:51 Sunny 82 27.8 22 -5.6 11 11 SSE 5 7 29.86 1011 10 16 0.00 0.00
12:51 pm 12:51 Sunny 83 28.3 26 -3.3 12 12 VRB 5 7 29.85 1011 10 16 0.00 0.00
1:51 pm 13:51 Sunny 83 28.3 25 -3.9 12 12 SE 8 13 29.83 1010 10 16 0.00 0.00
2:51 pm 14:51 Sunny 85 29.4 28 -2.2 13 13 SE 7 11 29.81 1010 10 16 0.00 0.00
3:51 pm 15:51 Sunny 86 30 27 -2.8 12 12 VRB 3 6 29.81 1010 10 16 0.00 0.00
4:51 pm 16:51 Sunny 86 30 25 -3.9 11 11 S 8 13 29.79 1009 10 16 0.00 0.00
5:51 pm 17:51 Sunny 86 30 26 -3.3 11 11 S 3 6 29.79 1009 10 16 0.00 0.00
6:51 pm 18:51 Sunny 85 29.4 26 -3.3 12 12 Calm 29.79 1009 10 16 0.00 0.00
7:51 pm 19:51 Clear 77 25 27 -2.8 16 16 E 3 6 29.79 1009 10 16 0.00 0.00
8:51 pm 20:51 Clear 72 22.2 25 -3.9 17 17 NNE 6 9 29.80 1009 10 16 0.00 0.00
9:51 pm 21:51 Clear 68 20 25 -3.9 20 20 NW 5 7 29.82 1010 10 16 0.00 0.00
10:51 pm 22:51 Clear 65 18.3 23 -5 20 20 Calm 29.82 1010 10 16 0.00 0.00
11:51 pm 23:51 Clear 61 16.1 24 -4.4 24 24 Calm 29.82 1010 10 16 0.00 0.00

Powered by Vaisala Xweather